Date String (YYYY-MM-DD hh:mm:ss) UTC,Instrument flags,absolute air pressure of the measurement (hPa),sample flow rate (lpm),inlet stack bypass flow (lpm),air temperature of the measurement (°C),ambient temperature measured by the external sensor (°C),aerosol sample conditioner tube jacket temperature (°C),OPC LED temperature (°C),internal box temperature (°C),relative humidity of the measurement (%),span deviation,mass concentration of particles derived from Lorenz-Mie calculation of OPC scattering (μg/m³),mass concentration of particles derived from Lorenz-Mie calculation of OPC scattering (μg/m³),mass concentration of particles derived from Lorenz-Mie calculation of OPC scattering (μg/m³)
DateTimeUTC,F1_M11,P_M11,Q1_M11,Q2_M11,T1_M11,T2_M11,T3_M11,T4_M11,T5_M11,U1_M11,ZSPAN_M11,X0_M11,X2_M11,X1_M11
2023-08-07 12:00:00,SystemResetWarning,0834.5,4.99,000.00,029.9,028.4,000.0,038.6,031.4,27.5,-001.2,0009.01,0006.10,0005.69
2023-08-07 12:01:00,SystemResetWarning,0834.5,5.00,000.00,029.9,028.4,000.0,038.6,031.4,27.4,-001.1,0008.97,0006.13,0005.72
2023-08-07 12:02:00,SystemResetWarning,0834.5,5.00,000.00,029.9,028.4,000.0,038.6,031.4,27.4,-001.1,0008.92,0006.14,0005.75
2023-08-07 12:03:00,SystemResetWarning,0834.5,5.00,000.00,029.9,028.4,000.0,038.6,031.4,27.5,-001.4,0008.85,0006.16,0005.77
2023-08-07 12:04:00,SystemResetWarning,0834.6,5.00,000.00,029.9,028.4,000.0,038.6,031.4,27.5,-001.5,0008.89,0006.18,0005.79
2023-08-07 12:05:00,SystemResetWarning,0835.1,5.00,000.00,029.9,028.4,000.0,038.6,031.4,27.6,-001.5,0008.88,0006.20,0005.83
2023-08-07 12:06:00,SystemResetWarning,0835.1,5.00,000.00,029.9,028.4,000.0,038.6,031.4,27.5,-001.3,0008.99,0006.23,0005.85
2023-08-07 12:07:00,SystemResetWarning,0835.0,5.00,000.00,029.9,028.4,000.0,038.6,031.4,27.6,-001.5,0009.07,0006.26,0005.87
2023-08-07 12:08:00,SystemResetWarning,0834.8,5.00,000.00,029.9,028.4,000.0,038.6,031.4,27.6,-001.7,0009.47,0006.30,0005.90
2023-08-07 12:09:00,SystemResetWarning,0834.6,5.00,000.00,029.9,028.4,000.0,038.6,031.4,27.6,-001.3,0009.51,0006.31,0005.91
2023-08-07 12:10:00,SystemResetWarning,0834.6,5.00,000.00,029.9,028.4,000.0,038.6,031.4,27.6,-001.4,0009.57,0006.32,0005.93
2023-08-07 12:11:00,SystemResetWarning,0834.6,5.00,000.00,029.9,028.4,000.0,038.6,031.4,27.5,-001.4,0009.55,0006.32,0005.92
2023-08-07 12:12:00,SystemResetWarning,0834.6,5.00,000.00,029.9,028.3,000.0,038.6,031.3,27.5,-001.4,0010.03,0006.33,0005.94
2023-08-07 12:13:00,SystemResetWarning,0834.6,5.00,000.00,029.9,028.3,000.0,038.6,031.4,27.4,-001.5,0010.04,0006.33,0005.94
2023-08-07 12:14:00,SystemResetWarning,0834.6,5.00,000.00,029.9,028.3,000.0,038.6,031.4,27.4,-001.3,0010.00,0006.32,0005.96
2023-08-07 12:15:00,SystemResetWarning,0834.7,5.00,000.00,029.9,028.3,000.0,038.6,031.3,27.3,-001.7,0010.08,0006.31,0005.96
2023-08-07 12:16:00,SystemResetWarning,0835.0,5.00,000.00,029.9,028.4,000.0,038.6,031.4,27.1,-001.8,0010.13,0006.31,0005.95
2023-08-07 12:17:00,SystemResetWarning,0834.9,5.00,000.00,029.9,028.4,000.0,038.6,031.3,26.9,-001.8,0010.06,0006.29,0005.94
2023-08-07 12:18:00,SystemResetWarning,0835.0,4.99,000.00,029.9,028.3,000.0,038.6,031.4,26.9,-001.5,0010.03,0006.28,0005.94
2023-08-07 12:19:00,SystemResetWarning,0834.9,5.00,000.00,029.9,028.3,000.0,038.6,031.3,26.8,-000.5,0009.55,0006.24,0005.92
2023-08-07 12:20:00,SystemResetWarning,0834.5,5.00,000.00,029.9,028.4,000.0,038.6,031.4,26.8,-000.0,0009.45,0006.25,0005.92
2023-08-07 12:21:00,SystemResetWarning,0834.5,5.00,000.00,029.9,028.4,000.0,038.6,031.4,26.8,0000.2,0009.65,0006.25,0005.92
2023-08-07 12:22:00,SystemResetWarning,0834.5,5.00,000.00,029.9,028.4,000.0,038.6,031.4,26.7,0000.7,0009.93,0006.27,0005.92
2023-08-07 12:23:00,SystemResetWarning,0834.5,5.00,000.00,029.9,028.4,000.0,038.6,031.4,26.6,0000.7,0009.50,0006.26,0005.92
2023-08-07 12:24:00,SystemResetWarning,0834.7,5.00,000.00,029.9,028.4,000.0,038.6,031.4,26.6,0001.1,0009.82,0006.28,0005.92
2023-08-07 12:25:00,SystemResetWarning,0835.1,5.00,000.00,029.9,028.4,000.0,038.6,031.4,26.6,0000.9,0010.05,0006.29,0005.90
2023-08-07 12:26:00,SystemResetWarning,0834.9,5.00,000.00,029.9,028.4,000.0,038.6,031.4,26.6,0001.7,0009.93,0006.29,0005.91
2023-08-07 12:27:00,SystemResetWarning,0834.5,5.00,000.00,029.9,028.4,000.0,038.6,031.4,26.7,0002.0,0009.91,0006.31,0005.93
2023-08-07 12:28:00,SystemResetWarning,0834.5,5.00,000.00,029.9,028.4,000.0,038.6,031.4,26.7,0001.9,0009.92,0006.33,0005.94
2023-08-07 12:29:00,SystemResetWarning,0834.5,5.00,000.00,029.9,028.4,000.0,038.6,031.4,26.7,0001.8,0009.88,0006.33,0005.95
2023-08-07 12:30:00,SystemResetWarning,0834.7,5.00,000.00,029.9,028.4,000.0,038.6,031.3,26.6,0001.1,0010.16,0006.34,0005.98
2023-08-07 12:31:00,SystemResetWarning,0835.1,5.00,000.00,029.9,028.4,000.0,038.6,031.3,26.7,0000.3,0010.57,0006.36,0006.00
2023-08-07 12:32:00,SystemResetWarning,0834.8,5.00,000.00,029.9,028.3,000.0,038.6,031.3,27.0,0000.5,0010.39,0006.39,0006.02
2023-08-07 12:33:00,SystemResetWarning,0834.8,5.00,000.00,029.9,028.3,000.0,038.6,031.3,27.2,-000.0,0010.17,0006.40,0006.03
2023-08-07 12:34:00,SystemResetWarning,0834.6,5.01,000.00,029.9,028.3,000.0,038.5,031.2,27.4,0000.4,0010.21,0006.42,0006.04
2023-08-07 12:35:00,SystemResetWarning,0834.6,5.01,000.00,029.8,028.3,000.0,038.5,031.2,27.5,0000.4,0010.03,0006.42,0006.02
2023-08-07 12:36:00,SystemResetWarning,0834.6,5.01,000.00,029.8,028.3,000.0,038.5,031.2,27.7,0000.7,0009.86,0006.42,0006.03
2023-08-07 12:37:00,SystemResetWarning,0835.1,5.00,000.00,029.8,028.3,000.0,038.5,031.2,27.9,-000.0,0009.90,0006.42,0006.00
2023-08-07 12:38:00,SystemResetWarning,0835.1,4.99,000.00,029.8,028.3,000.0,038.5,031.2,28.0,0000.4,0009.87,0006.37,0005.96
2023-08-07 12:39:00,SystemResetWarning,0835.3,5.00,000.00,029.8,028.3,000.0,038.5,031.2,27.9,0000.5,0010.07,0006.33,0005.90
2023-08-07 12:40:00,SystemResetWarning,0834.8,4.99,000.00,029.8,028.3,000.0,038.5,031.2,27.9,0000.3,0010.14,0006.28,0005.84
2023-08-07 12:41:00,SystemResetWarning,0834.8,5.00,000.00,029.8,028.2,000.0,038.5,031.2,28.0,0000.3,0009.95,0006.23,0005.77
2023-08-07 12:42:00,SystemResetWarning,0834.7,5.00,000.00,029.8,028.2,000.0,038.5,031.2,28.1,0000.6,0009.31,0006.15,0005.69
2023-08-07 12:43:00,SystemResetWarning,0834.7,5.00,000.00,029.8,028.2,000.0,038.4,031.2,28.1,0000.2,0009.22,0006.06,0005.61
2023-08-07 12:44:00,SystemResetWarning,0834.7,5.00,000.00,029.8,028.2,000.0,038.4,031.2,28.3,0000.2,0009.11,0005.97,0005.54
2023-08-07 12:45:00,SystemResetWarning,0834.7,5.00,000.00,029.8,028.2,000.0,038.4,031.2,28.6,0000.4,0009.20,0005.92,0005.49
2023-08-07 12:46:00,SystemResetWarning,0834.7,5.00,000.00,029.7,028.2,000.0,038.4,031.2,28.7,0000.5,0009.68,0005.83,0005.43
2023-08-07 12:47:00,SystemResetWarning,0834.7,5.00,000.00,029.7,028.2,000.0,038.4,031.2,28.7,0000.6,0009.54,0005.77,0005.38
2023-08-07 12:48:00,SystemResetWarning,0834.9,5.01,000.00,029.7,028.2,000.0,038.4,031.1,28.8,0001.2,0009.44,0005.71,0005.34
2023-08-07 12:49:00,SystemResetWarning,0835.0,5.01,000.00,029.7,028.2,000.0,038.4,031.1,28.9,0001.1,0009.50,0005.69,0005.31
2023-08-07 12:50:00,SystemResetWarning,0834.6,5.00,000.00,029.7,028.2,000.0,038.4,031.1,28.9,0001.2,0009.59,0005.67,0005.29
2023-08-07 12:51:00,SystemResetWarning,0834.6,5.00,000.00,029.7,028.1,000.0,038.4,031.1,29.0,0000.8,0009.64,0005.65,0005.28
2023-08-07 12:52:00,SystemResetWarning,0834.6,5.00,000.00,029.7,028.1,000.0,038.3,031.1,29.2,0000.7,0009.67,0005.68,0005.29
2023-08-07 12:53:00,SystemResetWarning,0834.6,5.00,000.00,029.7,028.2,000.0,038.3,031.1,29.2,0000.3,0009.67,0005.67,0005.29
2023-08-07 12:54:00,SystemResetWarning,0834.8,5.00,000.00,029.7,028.2,000.0,038.3,031.2,29.3,0000.7,0009.62,0005.68,0005.32
2023-08-07 12:55:00,SystemResetWarning,0835.2,4.99,000.00,029.7,028.2,000.0,038.3,031.2,29.2,0000.5,0009.72,0005.74,0005.36
2023-08-07 12:56:00,SystemResetWarning,0835.2,5.00,000.00,029.7,028.2,000.0,038.3,031.2,29.2,0000.0,0009.65,0005.82,0005.45
2023-08-07 12:57:00,SystemResetWarning,0835.1,5.00,000.00,029.7,028.2,000.0,038.3,031.2,29.2,0000.0,0009.06,0005.93,0005.55
2023-08-07 12:58:00,SystemResetWarning,0834.7,5.01,000.00,029.7,028.2,000.0,038.3,031.1,29.2,-000.2,0009.40,0006.09,0005.67
2023-08-07 12:59:00,SystemResetWarning,0834.9,5.00,000.00,029.7,028.2,000.0,038.3,031.1,29.3,-000.9,0009.69,0006.25,0005.81
